Scott Air Force Base, IL

6:53 PM CST on February 13, 2016 (GMT -0600)
Scott Air Force Base-Midamerica

Weather History for KBLV - September, 2013

Change the Weather History Date:

Wednesday, September 18, 2013

  Actual Average (WUND) Record (WUND)
Temperature  
Mean Temperature 76 °F -  
Max Temperature 87 °F - - (-1)
Min Temperature 64 °F - - (-1)
Cooling Degree Days 10    
Growing Degree Days 26 (Base 50)    
Moisture  
Dew Point 67 °F    
Average Humidity 91    
Maximum Humidity 100    
Minimum Humidity 55    
Precipitation  
Precipitation 0.43 in - - ()
Sea Level Pressure  
Sea Level Pressure 30.05 in    
Wind  
Wind Speed 3 mph (SE)    
Max Wind Speed 12 mph    
Max Gust Speed -    
Visibility 8 miles    
Events Rain    
Averages and records for this station are not official NWS values.
T = Trace of Precipitation, MM = Missing Value Source: NWS Daily Summary

Daily Weather History Graph

Daily Weather History Graph

Search for Another Location

Airport or City:

Trip Planner

Search our weather history database for the weather conditions in past years. The results will help you decide how hot, cold, wet, or windy it might be!

Date:

Astronomy

Sep. 18, 2013 Rise Set
Actual Time 6:43 AM CDT 7:02 PM CDT
Civil Twilight 6:17 AM CDT 7:28 PM CDT
Nautical Twilight 5:46 AM CDT 7:59 PM CDT
Astronomical Twilight 5:14 AM CDT 8:31 PM CDT
Moon 6:25 PM CDT (9/18) 5:46 AM CDT (9/18)
Length of Visible Light 13h 11m
Length of Day
12h 18m
Waxing Gibbous, 99% of the Moon is Illuminated
Sep 18
Waxing Gibbous
Sep 19
Full
Sep 26
Last Quarter
Oct 4
New
Oct 11
First Quarter

Hourly Weather History & Observations

Time (CDT) Temp. Heat Index Dew Point Humidity Pressure Visibility Wind Dir Wind Speed Gust Speed Precip Events Conditions
12:58 AM 66.2 °F - 62.1 °F 86% 30.09 in 10.0 mi ESE 2.3 mph - N/A   Overcast
1:58 AM 66.0 °F - 62.8 °F 89% 30.08 in 10.0 mi SE 3.5 mph - N/A   Overcast
2:26 AM 66.2 °F - 62.6 °F 88% 30.08 in 10.0 mi Calm Calm - N/A   Light Drizzle
2:38 AM 66.2 °F - 62.6 °F 88% 30.08 in 10.0 mi Calm Calm - N/A   Overcast
2:53 AM 66.2 °F - 64.4 °F 94% 30.08 in 10.0 mi Calm Calm - N/A Rain Light Rain
2:58 AM 66.2 °F - 64.2 °F 93% 30.08 in 10.0 mi East 2.3 mph - 0.00 in   Light Drizzle
3:05 AM 66.2 °F - 64.4 °F 94% 30.08 in 10.0 mi Calm Calm - N/A   Overcast
3:09 AM 66.2 °F - 64.4 °F 94% 30.08 in 9.0 mi Calm Calm - N/A Rain Light Rain
3:34 AM 66.2 °F - 64.4 °F 94% 30.08 in 3.0 mi NNW 3.5 mph - N/A Rain Light Rain
3:39 AM 66.2 °F - 64.4 °F 94% 30.08 in 2.0 mi Calm Calm - N/A Rain Rain
3:44 AM 66.2 °F - 64.4 °F 94% 30.08 in 2.5 mi NNE 2.3 mph - N/A Rain Rain
3:49 AM 64.4 °F - 64.4 °F 100% 30.08 in 4.0 mi North 2.3 mph - N/A Rain Light Rain
3:54 AM 64.4 °F - 64.4 °F 100% 30.08 in 5.0 mi Calm Calm - N/A Rain Light Rain
3:58 AM 65.1 °F - 64.8 °F 99% 30.09 in 6.0 mi Calm Calm - 0.10 in Rain Light Rain
4:03 AM 64.4 °F - 64.4 °F 100% 30.08 in 5.0 mi Calm Calm - N/A Rain Light Rain
4:13 AM 64.4 °F - 64.4 °F 100% 30.08 in 2.5 mi Calm Calm - N/A Rain Rain
4:18 AM 64.4 °F - 64.4 °F 100% 30.08 in 2.5 mi Calm Calm - N/A Rain Light Rain
4:23 AM 64.4 °F - 64.4 °F 100% 30.08 in 3.0 mi Calm Calm - N/A Rain Light Rain
4:43 AM 64.4 °F - 64.4 °F 100% 30.08 in 6.0 mi ESE 2.3 mph - N/A Rain Light Rain
4:44 AM 64.4 °F - 64.4 °F 100% 30.08 in 7.0 mi East 1.2 mph - N/A   Overcast
4:55 AM 64.4 °F - 64.4 °F 100% 30.08 in 7.0 mi ESE 2.3 mph - N/A Rain Light Rain
4:58 AM 64.8 °F - 64.4 °F 99% 30.09 in 6.0 mi ESE 3.5 mph - 0.17 in Rain Light Rain
5:03 AM 64.4 °F - 64.4 °F 100% 30.07 in 5.0 mi East 1.2 mph - N/A Rain Light Rain
5:28 AM 64.4 °F - 64.4 °F 100% 30.08 in 6.0 mi SSE 2.3 mph - N/A Rain Light Rain
5:58 AM 64.8 °F - 64.4 °F 99% 30.09 in 4.0 mi SE 2.3 mph - 0.07 in Rain Light Rain
6:18 AM 64.4 °F - 64.4 °F 100% 30.08 in 5.0 mi ESE 2.3 mph - N/A   Light Drizzle
6:26 AM 64.4 °F - 64.4 °F 100% 30.08 in 7.0 mi ESE 2.3 mph - N/A   Overcast
6:41 AM 66.2 °F - 66.2 °F 100% 30.08 in 7.0 mi SSE 3.5 mph - N/A   Overcast
6:58 AM 65.1 °F - 65.1 °F 100% 30.09 in 7.0 mi SSE 5.8 mph - 0.06 in   Mostly Cloudy
7:53 AM 66.2 °F - 66.2 °F 100% 30.09 in 7.0 mi SE 4.6 mph - N/A Rain Light Rain
7:58 AM 65.7 °F - 65.7 °F 100% 30.09 in 8.0 mi ESE 5.8 mph - 0.00 in Rain Light Rain
8:03 AM 66.2 °F - 66.2 °F 100% 30.08 in 8.0 mi SE 6.9 mph - N/A   Mostly Cloudy
8:08 AM 66.2 °F - 66.2 °F 100% 30.08 in 8.0 mi SE 6.9 mph - N/A Rain Light Rain
8:18 AM 66.2 °F - 66.2 °F 100% 30.08 in 6.0 mi SE 6.9 mph - N/A Rain Light Rain
8:38 AM 66.2 °F - 66.2 °F 100% 30.09 in 10.0 mi SE 2.3 mph - N/A   Mostly Cloudy
8:43 AM 66.2 °F - 66.2 °F 100% 30.08 in 10.0 mi ESE 4.6 mph - N/A   Mostly Cloudy
8:58 AM 66.9 °F - 66.6 °F 99% 30.09 in 10.0 mi ESE 4.6 mph - 0.02 in   Scattered Clouds
9:23 AM 68.0 °F - 68.0 °F 100% 30.09 in 10.0 mi ESE 5.8 mph - N/A Rain Light Rain
9:37 AM 68.0 °F - 68.0 °F 100% 30.09 in 10.0 mi SE 6.9 mph - N/A   Mostly Cloudy
9:58 AM 68.9 °F - 68.7 °F 99% 30.09 in 10.0 mi ESE 6.9 mph - 0.01 in   Mostly Cloudy
10:58 AM 73.8 °F - 70.7 °F 90% 30.08 in 10.0 mi SE 8.1 mph - N/A   Partly Cloudy
11:58 AM 74.3 °F - 70.0 °F 86% 30.07 in 10.0 mi ESE 8.1 mph - N/A   Partly Cloudy
11:59 AM 75.2 °F - 69.8 °F 83% 30.07 in 10.0 mi SE 8.1 mph - N/A   Partly Cloudy
12:13 PM 77.0 °F - 71.6 °F 83% 30.06 in 10.0 mi SE 6.9 mph - N/A Rain Light Rain
12:29 PM 78.8 °F - 71.6 °F 78% 30.05 in 10.0 mi SSE 9.2 mph - N/A   Clear
12:46 PM 80.6 °F 84.6 °F 71.6 °F 74% 30.05 in 10.0 mi SE 8.1 mph - N/A Rain Light Rain
12:56 PM 80.6 °F 83.9 °F 69.8 °F 70% 30.04 in 10.0 mi SSE 9.2 mph - N/A   Partly Cloudy
12:58 PM 80.6 °F 84.2 °F 70.9 °F 72% 30.04 in 10.0 mi SSE 9.2 mph - 0.00 in   Partly Cloudy
1:58 PM 83.1 °F 87.1 °F 70.0 °F 64% 30.01 in 10.0 mi SE 11.5 mph - 0.00 in   Partly Cloudy
2:58 PM 87.3 °F 91.6 °F 69.3 °F 55% 30.00 in 10.0 mi South 11.5 mph - N/A   Clear
3:58 PM 87.1 °F 92.4 °F 70.7 °F 58% 29.98 in 10.0 mi SE 10.4 mph - N/A   Clear
4:58 PM 83.1 °F 87.8 °F 71.1 °F 67% 29.97 in 10.0 mi SSE 5.8 mph - N/A   Clear
5:41 PM 82.4 °F 87.2 °F 71.6 °F 70% 29.97 in 10.0 mi South 3.5 mph - N/A Rain Light Rain
5:51 PM 80.6 °F 85.4 °F 73.4 °F 79% 29.97 in 10.0 mi SSE 4.6 mph - N/A Rain Light Rain
5:58 PM 80.8 °F 85.8 °F 73.8 °F 79% 29.96 in 10.0 mi SE 4.6 mph - 0.00 in Rain Light Rain
6:03 PM 80.6 °F 86.2 °F 75.2 °F 84% 29.96 in 10.0 mi SSE 8.1 mph - N/A Rain Light Rain
6:08 PM 80.6 °F 85.4 °F 73.4 °F 79% 29.96 in 10.0 mi South 8.1 mph - N/A   Scattered Clouds
6:58 PM 78.1 °F - 71.4 °F 80% 29.96 in 10.0 mi ESE 2.3 mph - 0.00 in   Partly Cloudy
7:58 PM 73.4 °F - 73.0 °F 99% 29.97 in 10.0 mi East 3.5 mph - N/A   Clear
8:58 PM 72.0 °F - 71.8 °F 99% 29.99 in 10.0 mi Calm Calm - N/A   Clear
9:58 PM 70.9 °F - 70.7 °F 99% 29.99 in 10.0 mi SE 4.6 mph - N/A   Clear
10:58 PM 71.2 °F - 70.0 °F 96% 29.99 in 10.0 mi SSE 6.9 mph - N/A   Clear
11:58 PM 70.3 °F - 70.0 °F 99% 29.99 in 10.0 mi SSE 6.9 mph - N/A   Clear